Tracking 20945 objects as of 8-Jul-2020
HD Live streaming from Space Station
objects crossing your sky now

COSMOS 2022 (GLONASS)

Track COSMOS 2022 (GLONASS) now!
COSMOS 2022 (GLONASS) is classified as:


NORAD ID: 20024
Int'l Code: 1989-039A
Perigee: 19,118.0 km
Apogee: 19,156.0 km
Inclination: 65.5 °
Period: 675.7 minutes
Semi major axis: 25508 km
RCS: 4.9605 m2 (large)
Launch date: May 31, 1989
Source: Commonwealth of Independent States (former USSR) (CIS)
Launch site: TYURATAM MISSILE AND SPACE COMPLEX (TTMTR)
aabbcc
Your satellite tracking list
Your tracking list is empty




NASA's NSSDC Master Catalog

Two Line Element Set (TLE):
1 20024U 89039A   20186.32896750 -.00000056  00000-0  00000+0 0  9995
2 20024  65.4807  24.8412 0007455 213.1944 150.6029  2.13102125242004
Source of the keplerian elements: AFSPC